Regional Weather Roundup
Issued by NWS State College, PA

Home | Current Version | Previous Version | Graphics & Text | Print | Product List | Glossary On
Versions: 1 2 3 4 5 6 7 8 9 10 11 12 13 14 15 16 17 18 19 20 21 22 23 24 25 26 27 28 29 30 31 32 33 34 35 36 37 38 39 40 41 42 43 44 45 46 47 48 49 50
000
ASUS41 KCTP 211103
RWRCTP

REGIONAL WEATHER ROUNDUP
NATIONAL WEATHER SERVICE STATE COLLEGE PA
700 AM EDT SAT APR 21 2018

Note: "fair" indicates few or no clouds below 12,000 feet with no
significant weather and/or obstructions to visibility.

* = STATION THAT DOES NOT REPORT PRECIPITATION /E.G. RAIN...SNOW...ETC/
    THUNDER OR FOG.

PAZ002>004-007>009-013>016-020>023-029>032-211200-
WESTERN PENNSYLVANIA

CITY           SKY/WX    TMP DP  RH WIND       PRES   REMARKS
ERIE           FAIR      29  25  85 S5        30.48R
MEADVILLE      FAIR      29  23  78 CALM      30.45R
FRANKLIN*      FAIR      26  22  84 CALM      30.45R
NEW CASTLE     FAIR      23  21  92 CALM      30.47R
BEAVER COUNTY  NOT AVBL
BUTLER*        FAIR      27  23  85 CALM      30.46R
PITTSBURGH INT FAIR      29  22  75 W3        30.45R
PITTSBURGH     FAIR      34  23  64 CALM      30.44R
INDIANA*       CLEAR     27  25  93 CALM      30.47R
LATROBE        CLEAR     27  25  93 CALM      30.45R
WASHINGTON CO* FAIR      26  23  88 CALM      30.48R
$$

PAZ004>006-010>012-017>019-024>028-033>037-041-042-045-046-049>053-211200-
CENTRAL PENNSYLVANIA

CITY           SKY/WX    TMP DP  RH WIND       PRES   REMARKS
BRADFORD       FAIR      25  21  85 CALM      30.40R
DUBOIS         FAIR      29  22  75 CALM      30.41R
CLEARFIELD     FAIR      28  24  85 CALM      30.43S
JOHNSTOWN      FAIR      31  21  66 CALM      30.38R
ALTOONA        FAIR      31  23  72 CALM      30.43R
STATE COLLEGE  CLEAR     30  23  74 CALM      30.43R
WILLIAMSPORT   FAIR      30  25  81 CALM      30.45S
SELINSGROVE    FAIR      27  25  92 CALM      30.46S
FT INDIANTOWN  FAIR      32  30  92 CALM      30.44S
CAPITAL CITY   FAIR      35  27  72 W5        30.45S
HARRISBURG     FAIR      36  27  69 N5        30.45S
YORK           FAIR      28  26  92 CALM      30.45R
$$

PAZ038>040-043-044-047-048-054-055-060>062-067>071-211200-
EASTERN PENNSYLVANIA

CITY           SKY/WX    TMP DP  RH WIND       PRES   REMARKS
SCRANTON       FAIR      28  25  88 CALM      30.42R
MOUNT POCONO   FAIR      30  23  75 NW7       30.36R
ALLENTOWN      FAIR      32  24  72 SW3       30.43S
QUAKERTOWN*    SUNNY     34  25  69 VRB3      30.43S
READING        FAIR      32  28  85 CALM      30.44S
LANCASTER      FAIR      33  26  75 W3        30.45R
COATESVILLE    FAIR      32  25  74 NW6       30.44S
POTTSTOWN      FAIR      31  25  78 NW3       30.45S
BLUE BELL      FAIR      32  28  86 CALM      30.46R
DOYLESTOWN     FAIR      33  25  72 CALM      30.42R
WILLOW GROVE   NOT AVBL
NORTH PHILA    FAIR      39  26  59 NW7       30.45R
PHILADELPHIA   FAIR      38  25  59 SW3       30.45S
$$




USA.gov is the U.S. government's official web portal to all federal, state and local government web resources and services.